Regional Weather Roundup
Issued by NWS Cleveland, OH

Home | Current Version | Previous Version | Text Only | Print | Product List | Glossary Off
Versions: 1 2 3 4 5 6 7 8 9 10 11 12 13 14 15 16 17 18 19 20 21 22 23 24 25 26 27 28 29 30 31 32 33 34 35 36 37 38 39 40 41 42 43 44 45 46 47 48 49 50

000
ASUS41 KCLE 212110
RWRCLE
OHIO REGIONAL WEATHER ROUNDUP
NATIONAL WEATHER SERVICE WILMINGTON, OH
500 PM EDT MON AUG 21 2017

NOTE: "FAIR" INDICATES FEW OR NO CLOUDS BELOW 12,000 FEET WITH NO
SIGNIFICANT WEATHER AND/OR OBSTRUCTIONS TO VISIBILITY.

OHZ001>008-015>018-024>027-034-035-043-044-212200-
   NORTHWEST OHIO

CITY           SKY/WX    TMP DP  RH WIND       PRES   REMARKS
DEFIANCE       FAIR      86  69  56 SW8       30.04F HX  90
FINDLAY        FAIR      82  70  66 S9        30.07R
TOLEDO EXPRESS FAIR      86  70  58 SW8       30.04S HX  90
TOLEDO EXEC    FAIR      88  71  57 SW10      30.04F HX  94
LIMA           FAIR      81  71  71 S9        30.09R
$$

OHZ009>014-019>023-028>033-038-089-212200-
   NORTHEAST OHIO

CITY           SKY/WX    TMP DP  RH WIND       PRES   REMARKS
CLE-HOPKINS    PTSUNNY   88  68  51 SW12      30.08S HX  91
CLE-LAKEFRONT  FAIR      82  70  66 N5        30.06S
CUY CO. ARPT   PTSUNNY   91  68  46 NE8       30.08F HX  95
LORAIN-ELYRIA  PTSUNNY   82  66  58 SW5       30.08S
ASHTABULA      FAIR      85  69  58 CALM      30.10S
AKRON-CANTON   PTSUNNY   86  68  54 SW15      30.11S
WOOSTER        FAIR      82  70  66 SW6       30.11S
MANSFIELD      FAIR      86  71  60 S14       30.11S HX  91
YOUNGSTOWN     PTSUNNY   83  66  56 S8        30.11R THUNDER
$$

OHZ042-051>053-060>062-070>072-077>081-212200-
  SOUTHWEST OHIO

CITY           SKY/WX    TMP DP  RH WIND       PRES   REMARKS
CINC-COVINGTON PTSUNNY   88  70  55 SW7       30.11F HX  93
CINC-LUNKEN    FAIR      89  71  55 S9        30.09F HX  95
HAMILTON       FAIR      89  70  53 SW8       30.10F HX  94
DAYTON         CLOUDY    86  66  51 SW12      30.11S
WRIGHT-PAT AFB CLOUDY    90  64  41 SW10      30.09S HX  91
DAYTON GENERAL FAIR      87  65  47 SW8       30.10F
WILMINGTON     FAIR      86  72  62 S12       30.11F HX  92
$$

OHZ036-037-039>041-045>050-054>059-063>069-073>076-082>088-212200-
  CENTRAL AND SOUTHEAST OHIO

CITY           SKY/WX    TMP DP  RH WIND       PRES   REMARKS
COLUMBUS       PTSUNNY   89  69  51 SW16      30.10S HX  93
OSU AIRPORT    FAIR      88  71  57 SW10      30.11R HX  94
BOLTON FIELD   SUNNY     88  72  58 SW9G18    30.11F HX  94
RICKENBACK AFB FAIR      88  70  53 SW12G18   30.10S HX  93
NEWARK         FAIR      86  69  56 SW6       30.11S HX  90
MARION         FAIR      86  69  56 SW13      30.10R HX  90
LANCASTER      FAIR      88  72  58 SW6       30.12S HX  94
ZANESVILLE     FAIR      87  74  64 S9        30.12F HX  95
NEW PHILLY     FAIR      85  74  69 VRB6      30.13R HX  92
$$




USA.gov is the U.S. government's official web portal to all federal, state and local government web resources and services.